User: anonymous   Login
Location: Cran-Gévrier
(45.9039°N, 6.1012°E)
Time: 17:28:04
(UTC+00:00)
Language:

Feng Yun 1-1 Rocket - Orbit

View from above orbital plane
View from above orbital plane
View from above satellite
View from above satellite

Ground track
Ground track

The orbit data is extracted from the following two-line orbital elements,

1 19468U 88080B   23150.11882918  .00000389  00000-0  27004-3 0  9997
2 19468  99.1154 189.0920 0072114 144.1075 278.6502 14.03581720778109
Epoch (UTC): 30 May 2023 02:51:06
Eccentricity: 0.0072114
inclination: 99.1154°
perigee height: 829 km
apogee height: 934 km
right ascension of ascending node: 189.0920°
argument of perigee: 144.1075°
revolutions per day: 14.03581720
mean anomaly at epoch: 278.6502°
orbit number at epoch: 77810

The dashed part of the orbit path shows where the satellite is in the earth's shadow,  

DLR